Montgomery, NY

5:02 AM EDT on March 24, 2017 (GMT -0400)
Orange County

Weather History for KMGJ - December, 2012

Change the Weather History Date:

Friday, December 28, 2012

  Actual Average (KSWF) Record (KSWF)
Temperature  
Mean Temperature 28 °F -  
Max Temperature 36 °F 35 °F 62 °F (2008)
Min Temperature 19 °F 21 °F - (2002)
Degree Days  
Heating Degree Days 38    
Moisture  
Dew Point 20 °F    
Average Humidity 67    
Maximum Humidity 89    
Minimum Humidity 57    
Precipitation  
Precipitation 0.00 in - - ()
Sea Level Pressure  
Sea Level Pressure 30.00 in    
Wind  
Wind Speed 7 mph (NW)    
Max Wind Speed 17 mph    
Max Gust Speed 53 mph    
Visibility 10 miles    
Events      
Averages and records for this station are not official NWS values.
T = Trace of Precipitation, MM = Missing Value Source: NWS Daily Summary

Daily Weather History Graph

Daily Weather History Graph

Search for Another Location

Airport or City:

Trip Planner

Search our weather history database for the weather conditions in past years. The results will help you decide how hot, cold, wet, or windy it might be!

Date:

Astronomy

Dec. 28, 2012 Rise Set
Actual Time 7:22 AM EST 4:34 PM EST
Civil Twilight 6:51 AM EST 5:06 PM EST
Nautical Twilight 6:16 AM EST 5:41 PM EST
Astronomical Twilight 5:42 AM EST 6:14 PM EST
Moon 5:10 PM EST (12/28) 7:14 AM EST (12/28)
Length of Visible Light 10h 14m
Length of Day
9h 12m
Full, 100% of the Moon is Illuminated
Dec 28
Full
Jan 4
Last Quarter
Jan 11
New
Jan 18
First Quarter
Jan 26
Full

Hourly Weather History & Observations

Time (EST) Temp. Windchill Dew Point Humidity Pressure Visibility Wind Dir Wind Speed Gust Speed Precip Events Conditions
12:54 AM 28.9 °F 19.2 °F 17.1 °F 61% 29.85 in 10.0 mi NNW 11.5 mph 24.2 mph N/A   Overcast
1:54 AM 28.9 °F - 17.1 °F 61% 29.87 in 10.0 mi Calm Calm - N/A   Overcast
2:54 AM 28.9 °F 22.8 °F 17.1 °F 61% 29.89 in 10.0 mi Variable 5.8 mph - N/A   Overcast
3:54 AM 28.9 °F 20.4 °F 18.0 °F 64% 29.92 in 10.0 mi NNW 9.2 mph - N/A   Mostly Cloudy
4:54 AM 28.9 °F 21.9 °F 19.0 °F 67% 29.93 in 10.0 mi NW 6.9 mph - N/A   Overcast
5:08 AM 30.2 °F 23.4 °F 19.4 °F 64% 29.92 in 10.0 mi WNW 6.9 mph - N/A   Overcast
5:41 AM 30.2 °F 22.6 °F 19.4 °F 64% 29.94 in 10.0 mi NW 8.1 mph 18.4 mph N/A   Mostly Cloudy
5:54 AM 30.0 °F 21.7 °F 19.9 °F 66% 29.97 in 10.0 mi WNW 9.2 mph - N/A   Mostly Cloudy
6:47 AM 30.2 °F 24.3 °F 19.4 °F 64% 29.98 in 10.0 mi WNW 5.8 mph - N/A   Overcast
6:54 AM 30.0 °F 23.2 °F 19.9 °F 66% 30.00 in 10.0 mi WNW 6.9 mph - N/A   Overcast
7:54 AM 30.9 °F 26.2 °F 21.0 °F 67% 30.00 in 10.0 mi WNW 4.6 mph 16.1 mph N/A   Overcast
8:54 AM 32.0 °F 24.2 °F 21.0 °F 64% 30.03 in 10.0 mi NW 9.2 mph - N/A   Overcast
9:13 AM 30.2 °F 20.8 °F 21.2 °F 69% 30.02 in 10.0 mi NW 11.5 mph 20.7 mph N/A   Scattered Clouds
9:54 AM 32.0 °F 21.2 °F 21.0 °F 64% 30.04 in 10.0 mi NW 16.1 mph 20.7 mph N/A   Clear
10:54 AM 33.1 °F 22.2 °F 21.9 °F 64% 30.04 in 10.0 mi NW 17.3 mph 21.9 mph N/A   Clear
11:54 AM 34.0 °F 26.6 °F 21.0 °F 59% 30.02 in 10.0 mi WNW 9.2 mph - N/A   Clear
12:54 PM 35.1 °F 27.4 °F 21.9 °F 59% 30.01 in 10.0 mi North 10.4 mph 52.9 mph N/A   Clear
1:54 PM 35.1 °F 29.3 °F 21.9 °F 59% 30.01 in 10.0 mi West 6.9 mph - N/A   Clear
2:54 PM 36.0 °F - 21.9 °F 57% 30.02 in 10.0 mi North - - N/A   Clear
3:54 PM 35.1 °F - 21.9 °F 59% 30.04 in 10.0 mi North - - N/A   Clear
4:54 PM 33.1 °F 26.9 °F 21.9 °F 64% 30.05 in 10.0 mi WNW 6.9 mph - N/A   Clear
5:54 PM 32.0 °F 24.8 °F 21.9 °F 66% 30.06 in 10.0 mi WNW 8.1 mph 16.1 mph N/A   Clear
6:54 PM 30.0 °F 25.2 °F 21.9 °F 72% 30.05 in 10.0 mi WNW 4.6 mph - N/A   Clear
7:54 PM 28.9 °F 22.8 °F 21.0 °F 72% 30.06 in 10.0 mi WNW 5.8 mph - N/A   Clear
8:54 PM 26.1 °F - 19.9 °F 78% 30.06 in 10.0 mi Calm Calm - N/A   Clear
9:54 PM 24.1 °F - 19.9 °F 84% 30.07 in 10.0 mi Calm Calm - N/A   Clear
10:54 PM 19.9 °F - 17.1 °F 89% 30.06 in 10.0 mi Calm Calm - N/A   Clear
11:54 PM 19.9 °F - 17.1 °F 89% 30.06 in 10.0 mi Calm Calm - N/A   Clear